Weather History for McComb, MS

Change the Weather History Date:

Tuesday, March 1, 2011

  Actual Average Record
Temperature  
Mean Temperature 58 °F -  
Max Temperature 72 °F 67 °F 82 °F (1992)
Min Temperature 44 °F 43 °F 22 °F (1968)
Degree Days  
Heating Degree Days 7    
Growing Degree Days 8 (Base 50)    
Moisture  
Dew Point 37 °F    
Average Humidity 57    
Maximum Humidity 86    
Minimum Humidity 16    
Precipitation  
Precipitation 0.00 in - - ()
Sea Level Pressure  
Sea Level Pressure 30.18 in    
Wind  
Wind Speed 8 mph (NNE)    
Max Wind Speed 13 mph    
Max Gust Speed 18 mph    
Averages and records for this station are not official NWS values.
T = Trace of Precipitation, MM = Missing Value Source: NWS Daily Summary

Daily Weather History Graph

Daily Weather History Graph

Search for Another Location

Airport:

Trip Planner

Search our weather history database for the weather conditions in past years. The results will help you decide how hot, cold, wet, or windy it might be!

Date:

Astronomy

Mar. 01, 2011 Rise Set
Actual Time 6:28 AM CST 6:00 PM CST
Civil Twilight 6:04 AM CST 6:24 PM CST
Nautical Twilight 5:36 AM CST 6:52 PM CST
Astronomical Twilight 5:08 AM CST 7:20 PM CST
Moon 4:26 AM CST (3/1) 3:25 PM CST (3/1)
Length of Visible Light 12h 19m
Length of Day
11h 31m
Waning Crescent, 9% of the Moon is Illuminated
Mar 1
Waning Crescent
Mar 4
New
Mar 12
First Quarter
Mar 19
Full
Mar 26
Last Quarter

Hourly Weather History & Observations

Time (CST) Temp. Windchill Dew Point Humidity Pressure Visibility Wind Dir Wind Speed Gust Speed Precip Events Conditions
12:46 AM 51.8 °F - 44.6 °F 76% 30.16 in - North 12.7 mph 18.4 mph N/A   Mostly Cloudy
12:53 AM 51.1 °F - 45.0 °F 80% 30.15 in - NNE 10.4 mph 18.4 mph N/A   Mostly Cloudy
1:03 AM 51.8 °F - 44.6 °F 76% 30.16 in - North 9.2 mph 16.1 mph N/A   Scattered Clouds
1:53 AM 48.9 °F - 44.1 °F 83% 30.15 in - North 6.9 mph - N/A   Clear
2:53 AM 48.9 °F - 43.0 °F 80% 30.14 in - North 8.1 mph - N/A   Partly Cloudy
3:53 AM 46.9 °F - 43.0 °F 86% 30.15 in - NNE 5.8 mph - N/A   Scattered Clouds
4:53 AM 46.0 °F 41.4 °F 42.1 °F 86% 30.17 in - NNE 9.2 mph - N/A   Partly Cloudy
5:53 AM 45.0 °F 40.6 °F 41.0 °F 86% 30.19 in - North 8.1 mph - N/A   Clear
6:53 AM 44.1 °F 38.6 °F 39.9 °F 85% 30.21 in - North 10.4 mph - N/A   Clear
7:53 AM 45.0 °F 40.1 °F 39.9 °F 82% 30.23 in - NNE 9.2 mph 17.3 mph N/A   Clear
8:53 AM 48.9 °F - 39.9 °F 71% 30.25 in - NNE 8.1 mph - N/A   Clear
10:53 AM 59.0 °F - 37.0 °F 44% 30.25 in - NNE 8.1 mph - N/A   Clear
12:53 PM 66.9 °F - 30.9 °F 26% 30.20 in - Variable 4.6 mph - N/A   Clear
2:53 PM 72.0 °F - 27.0 °F 19% 30.16 in - North 8.1 mph - N/A   Clear
3:53 PM 71.1 °F - 23.0 °F 16% 30.14 in - NE 4.6 mph - N/A   Clear
4:53 PM 71.1 °F - 26.1 °F 19% 30.14 in - NNE 4.6 mph - N/A   Clear
5:53 PM 66.9 °F - 30.9 °F 26% 30.17 in - North 4.6 mph - N/A   Clear
6:53 PM 63.0 °F - 33.1 °F 33% 30.18 in - NNE 4.6 mph - N/A   Clear
7:53 PM 60.1 °F - 32.0 °F 35% 30.19 in - North 4.6 mph - N/A   Clear
8:53 PM 57.9 °F - 33.1 °F 39% 30.19 in - NNE 4.6 mph - N/A   Clear
10:53 PM 51.1 °F - 36.0 °F 56% 30.19 in - NNE 3.5 mph - N/A   Clear
11:53 PM 53.1 °F - 34.0 °F 48% 30.19 in - NNE 4.6 mph - N/A   Clear